Lyndonville, VT

5:49 AM EDT on April 24, 2018 (GMT -0400)
Lyndonville

Weather History for KCDA - December, 2012

Change the Weather History Date:

Monday, December 17, 2012

  Actual Average (K1V4) Record (K1V4)
Temperature  
Mean Temperature 30 °F -  
Max Temperature 34 °F 29 °F 47 °F (1984)
Min Temperature 25 °F 13 °F -26 °F (1951)
Degree Days  
Heating Degree Days 36    
Moisture  
Dew Point 26 °F    
Average Humidity 86    
Maximum Humidity 92    
Minimum Humidity 78    
Precipitation  
Precipitation 0.00 in - - ()
Sea Level Pressure  
Sea Level Pressure 29.95 in    
Wind  
Wind Speed 4 mph (South)    
Max Wind Speed 7 mph    
Max Gust Speed -    
Visibility 7 miles    
Events Snow    
Averages and records for this station are not official NWS values.
T = Trace of Precipitation, MM = Missing Value Source: NWS Daily Summary

Daily Weather History Graph

Daily Weather History Graph

Search for Another Location

Airport or City:

Astronomy

Dec. 17, 2012 Rise Set
Actual Time 7:19 AM EST 4:09 PM EST
Civil Twilight 6:46 AM EST 4:42 PM EST
Nautical Twilight 6:09 AM EST 5:19 PM EST
Astronomical Twilight 5:33 AM EST 5:55 PM EST
Moon 10:16 AM EST (12/17) 9:38 PM EST (12/17)
Length of Visible Light 9h 56m
Length of Day
8h 49m
Waxing Crescent, 24% of the Moon is Illuminated
Dec 17
Waxing Crescent
Dec 20
First Quarter
Dec 28
Full
Jan 4
Last Quarter
Jan 11
New

Hourly Weather History & Observations

Time (EST) Temp. Windchill Dew Point Humidity Pressure Visibility Wind Dir Wind Speed Gust Speed Precip Events Conditions
12:15 AM 25.7 °F 20.1 °F 22.1 °F 86% 30.04 in 4.0 mi SSE 4.6 mph - N/A Snow Light Snow
12:35 AM 25.7 °F 19.0 °F 22.5 °F 88% 30.04 in 5.0 mi SSE 5.8 mph - N/A   Overcast
12:55 AM 26.1 °F 19.4 °F 22.1 °F 85% 30.04 in 7.0 mi South 5.8 mph - N/A   Overcast
1:15 AM 26.2 °F 19.6 °F 22.6 °F 86% 30.04 in 10.0 mi South 5.8 mph - N/A   Overcast
1:35 AM 26.1 °F 20.5 °F 22.6 °F 87% 30.03 in 10.0 mi South 4.6 mph - N/A   Overcast
1:55 AM 26.1 °F 21.9 °F 22.6 °F 87% 30.05 in 10.0 mi SSW 3.5 mph - N/A   Overcast
2:15 AM 26.4 °F 20.9 °F 22.8 °F 86% 30.03 in 10.0 mi SSE 4.6 mph - N/A   Overcast
2:35 AM 26.4 °F 20.9 °F 22.6 °F 86% 30.02 in 10.0 mi SSE 4.6 mph - N/A   Overcast
2:55 AM 26.6 °F 21.2 °F 22.5 °F 84% 30.02 in 10.0 mi South 4.6 mph - N/A   Overcast
3:15 AM 26.6 °F 21.2 °F 22.1 °F 83% 30.01 in 10.0 mi South 4.6 mph - N/A   Overcast
3:35 AM 26.6 °F 20.0 °F 21.9 °F 82% 30.01 in 7.0 mi SSW 5.8 mph - N/A Snow Light Snow
3:55 AM 26.4 °F 22.4 °F 22.5 °F 85% 30.01 in 1.5 mi South 3.5 mph - N/A Snow Light Snow
4:15 AM 26.1 °F 21.9 °F 22.8 °F 88% 30.01 in 1.5 mi SSW 3.5 mph - N/A Snow Light Snow
4:35 AM 26.1 °F 20.5 °F 23.0 °F 88% 30.00 in 1.5 mi South 4.6 mph - N/A Snow Light Snow
4:55 AM 26.2 °F 20.7 °F 23.2 °F 88% 29.99 in 1.2 mi SSE 4.6 mph - N/A Snow Light Snow
5:15 AM 26.4 °F 22.4 °F 23.7 °F 90% 29.99 in 0.8 mi South 3.5 mph - N/A Snow Snow
5:35 AM 26.6 °F - 23.9 °F 90% 29.99 in 0.8 mi Calm Calm - N/A Snow Snow
5:55 AM 26.6 °F 22.6 °F 23.9 °F 90% 29.99 in 1.2 mi SSW 3.5 mph - N/A Snow Light Snow
6:15 AM 26.6 °F 22.6 °F 23.9 °F 90% 29.99 in 1.2 mi SSW 3.5 mph - N/A Snow Light Snow
6:35 AM 26.6 °F 22.6 °F 24.1 °F 90% 29.99 in 2.5 mi SSW 3.5 mph - N/A Snow Light Snow
6:55 AM 27.0 °F - 24.4 °F 90% 29.98 in 1.8 mi Calm Calm - N/A Snow Light Snow
7:15 AM 27.1 °F 23.2 °F 24.4 °F 90% 29.98 in 2.0 mi South 3.5 mph - N/A Snow Light Snow
7:35 AM 27.1 °F - 24.6 °F 90% 29.98 in 1.5 mi Calm Calm - N/A Snow Light Snow
7:55 AM 27.3 °F - 24.8 °F 90% 29.98 in 1.8 mi Calm Calm - N/A Snow Light Snow
8:15 AM 27.5 °F - 24.8 °F 90% 29.98 in 1.2 mi Calm Calm - N/A Snow Light Snow
8:35 AM 28.0 °F 24.2 °F 25.3 °F 90% 29.98 in 1.8 mi South 3.5 mph - N/A Snow Light Snow
8:55 AM 28.4 °F - 25.7 °F 90% 29.97 in 4.0 mi Calm Calm - N/A Snow Light Snow
9:15 AM 29.1 °F 25.4 °F 25.7 °F 87% 29.96 in 10.0 mi SSE 3.5 mph - N/A   Overcast
9:35 AM 30.0 °F 24.1 °F 25.7 °F 84% 29.96 in 10.0 mi South 5.8 mph - N/A   Overcast
9:55 AM 30.2 °F 26.7 °F 26.1 °F 85% 29.96 in 10.0 mi South 3.5 mph - N/A   Overcast
10:15 AM 31.1 °F 27.7 °F 25.9 °F 81% 29.95 in 10.0 mi South 3.5 mph - N/A   Overcast
10:35 AM 31.1 °F - 26.2 °F 82% 29.94 in 7.0 mi Calm Calm - N/A Snow Light Snow
10:55 AM 31.5 °F 28.1 °F 27.0 °F 83% 29.94 in 10.0 mi South 3.5 mph - N/A   Overcast
11:15 AM 31.6 °F 26.0 °F 26.2 °F 80% 29.93 in 10.0 mi South 5.8 mph - N/A   Overcast
11:35 AM 32.0 °F 25.6 °F 26.4 °F 80% 29.92 in 10.0 mi South 6.9 mph - N/A   Overcast
11:55 AM 32.0 °F 28.7 °F 26.4 °F 80% 29.92 in 10.0 mi South 3.5 mph - N/A   Overcast
12:15 PM 32.0 °F 26.4 °F 26.6 °F 80% 29.93 in 10.0 mi SSW 5.8 mph - N/A   Overcast
12:35 PM 32.0 °F 27.5 °F 26.6 °F 80% 29.92 in 10.0 mi South 4.6 mph - N/A   Overcast
12:55 PM 32.0 °F 28.7 °F 26.6 °F 80% 29.93 in 10.0 mi SW 3.5 mph - N/A   Overcast
1:15 PM 32.0 °F 26.4 °F 26.6 °F 80% 29.92 in 10.0 mi SSW 5.8 mph - N/A   Overcast
1:35 PM 32.0 °F 26.4 °F 27.1 °F 82% 29.92 in 10.0 mi SSW 5.8 mph - N/A   Overcast
1:55 PM 32.4 °F 26.9 °F 27.1 °F 81% 29.92 in 10.0 mi SSW 5.8 mph - N/A   Overcast
2:15 PM 32.5 °F 29.3 °F 28.0 °F 83% 29.93 in 5.0 mi South 3.5 mph - N/A   Haze
2:35 PM 32.4 °F 27.9 °F 29.3 °F 88% 29.93 in 3.0 mi South 4.6 mph - N/A   Overcast
2:55 PM 32.4 °F 26.9 °F 29.8 °F 90% 29.93 in 3.0 mi South 5.8 mph - N/A   Overcast
3:15 PM 32.2 °F 25.8 °F 30.2 °F 92% 29.92 in 5.0 mi South 6.9 mph - N/A   Overcast
3:35 PM 32.2 °F 27.7 °F 30.2 °F 92% 29.92 in 7.0 mi South 4.6 mph - N/A   Overcast
3:55 PM 32.5 °F 28.1 °F 30.2 °F 91% 29.91 in 10.0 mi South 4.6 mph - N/A   Overcast
4:15 PM 32.5 °F 28.1 °F 30.2 °F 91% 29.91 in 7.0 mi South 4.6 mph - N/A   Overcast
4:35 PM 32.5 °F 28.1 °F 30.6 °F 92% 29.91 in 10.0 mi South 4.6 mph - N/A   Overcast
4:55 PM 32.5 °F 29.3 °F 30.6 °F 92% 29.91 in 10.0 mi South 3.5 mph - N/A   Overcast
7:35 PM 33.8 °F - 30.2 °F 87% 29.91 in 10.0 mi Calm Calm - N/A   Overcast
7:55 PM 34.0 °F 31.0 °F 30.0 °F 85% 29.91 in 7.0 mi SW 3.5 mph - N/A Snow Light Snow
8:15 PM 33.8 °F - 30.2 °F 87% 29.91 in 7.0 mi Calm Calm - N/A Snow Light Snow
8:35 PM 33.8 °F - 30.2 °F 87% 29.91 in 10.0 mi Calm Calm - N/A   Overcast
8:55 PM 33.8 °F - 30.0 °F 86% 29.90 in 10.0 mi Calm Calm - N/A   Overcast
9:15 PM 34.2 °F - 29.7 °F 84% 29.89 in 10.0 mi Calm Calm - N/A   Overcast
9:35 PM 34.9 °F 32.0 °F 29.8 °F 82% 29.89 in 10.0 mi SE 3.5 mph - N/A   Overcast
9:55 PM 34.9 °F - 29.8 °F 82% 29.89 in 10.0 mi Calm Calm - N/A   Overcast
10:15 PM 34.0 °F 31.0 °F 29.7 °F 84% 29.89 in 7.0 mi ENE 3.5 mph - N/A   Overcast
10:35 PM 34.0 °F 31.0 °F 28.9 °F 82% 29.88 in 10.0 mi ENE 3.5 mph - N/A   Overcast
10:55 PM 34.2 °F 31.2 °F 28.4 °F 79% 29.86 in 10.0 mi ENE 3.5 mph - N/A   Overcast
11:15 PM 34.2 °F 29.0 °F 28.4 °F 79% 29.86 in 10.0 mi ENE 5.8 mph - N/A   Overcast
11:35 PM 34.2 °F 30.0 °F 28.4 °F 79% 29.84 in 10.0 mi NE 4.6 mph - N/A   Overcast
11:55 PM 34.3 °F 29.2 °F 28.2 °F 78% 29.83 in 10.0 mi ENE 5.8 mph - N/A   Overcast